Location: Kermapucano
(48.0667°N, 3.3000°W)
Time: 20:14:57
(UTC+00:00)

CZ-4C R/B - Pass Details

Date: 29 November 2020
Orbit: 620 x 1382 km, 63.4° (Epoch: 24 January)

Event Time Altitude Azimuth Distance (km) Brightness Sun altitude
Exits shadow 06:56:25 - 253° (WSW) 3,129 4.7 -7.3°
Rises 06:56:26 0° 253° (WSW) 3,126 4.7 -7.2°
Reaches altitude 10° 06:58:48 10° 262° (W) 2,295 4.0 -6.9°
Maximum altitude 07:03:39 36° 329° (NNW) 1,340 2.9 -6.2°
Drops below altitude 10° 07:09:28 10° 35° (NE) 2,759 5.0 -5.3°
Sets 07:12:35 0° 43° (NE) 3,848 5.8 -4.8°
